Station: Clare  

  Atmospheric Gas Attenuation - ITU Rec 676-11   ----------------- dB/100km -----------------
Date Time Temp RH % AH g/m3 Dew Point Wind Direction Speed kph Gust kph Barometer mB Rainfall Since 9am 24GHz 47GHz 76GHz 122GHz 134GHz 241GHz
05/05 15:20 15 67 8.59 8.9 9 13 1023.6 0 19.5 25.9 39.6 103.8 97.6 335.7
05/05 15:10 15.3 66 8.62 9 15 20 1023.5 0 19.5 25.9 39.6 103.8 97.6 335.8
05/05 15:00 15 66 8.46 8.7 11 19 1023.4 0 19.2 25.7 39.1 102.4 95.9 329.7
05/05 14:50 14.4 69 8.53 8.8 11 15 1023.4 0 19.4 26.0 39.7 104.0 97.5 335.5
05/05 14:40 14 68 8.2 8.2 7 9 1023.3 0 18.7 25.6 38.5 101.0 93.7 322.0
05/05 14:30 14.2 70 8.55 8.8 11 17 1023.2 0 19.5 26.1 39.8 104.4 98.0 337.2
05/05 14:20 14.9 72 9.18 9.9 11 13 1023.2 0 20.8 26.9 42.0 110.3 105.5 363.4
05/05 14:10 14.7 68 8.56 8.9 15 22 1023.2 0 19.4 25.9 39.6 103.9 97.5 335.5
05/05 14:00 14.1 71 8.62 8.9 13 20 1023.1 0 19.6 26.2 40.2 105.3 99.1 340.8
05/05 13:50 15.2 68 8.83 9.3 15 20 1023.1 0 20.0 26.2 40.5 106.1 100.5 345.8
05/05 13:40 15.2 73 9.48 10.4 11 13 1023.1 0 21.4 27.3 43.1 113.1 109.1 376.0
05/05 13:30 14.6 76 9.51 10.4 9 15 1023.1 0 21.5 27.5 43.5 114.3 110.4 380.3
05/05 13:20 14.2 77 9.4 10.2 11 13 1023.3 0 21.3 27.5 43.3 113.7 109.4 377.1
05/05 13:10 14.2 79 9.65 10.6 13 17 1023.4 0 21.8 27.9 44.4 116.5 112.9 389.1
05/05 13:00 14.4 77 9.52 10.4 13 24 1023.4 0 21.5 27.6 43.7 114.7 110.8 381.9
05/05 12:50 14.9 77 9.81 10.9 15 19 1023.5 0 22.1 27.9 44.6 117.2 114.0 393.3
05/05 12:40 15 77 9.87 11 9 13 1023.7 0 22.2 28.0 44.8 117.8 114.7 395.7
05/05 12:30 14.6 83 10.39 11.7 9 15 1023.7 0 23.4 29.0 47.3 124.2 122.6 423.0
05/05 12:20 14 84 10.13 11.3 7 9 1023.9 0 22.8 28.8 46.5 122.2 119.9 413.5
05/05 12:10 14 83 10.01 11.2 11 13 1024.1 0 22.6 28.6 46.0 120.9 118.2 407.7
05/05 12:00 14.3 87 10.69 12.2 9 15 1024.1 0 24.0 29.7 48.8 128.2 127.3 439.6
05/05 11:50 13.3 90 10.4 11.7 7 11 1024.2 0 23.5 29.5 48.1 126.5 124.9 430.8
05/05 11:40 12.7 92 10.24 11.4 11 13 1024.3 0 23.1 29.4 47.8 125.6 123.6 426.2
05/05 11:30 12.5 92 10.12 11.2 9 15 1024.3 0 22.9 29.3 47.4 124.6 122.2 421.3
05/05 11:20 12.3 91 9.88 10.9 11 13 1024.4 0 22.4 28.9 46.5 122.1 119.1 410.4
05/05 11:10 13.2 88 10.1 11.3 11 13 1024.4 0 22.8 29.0 46.9 123.2 120.8 416.5
05/05 11:00 13.4 92 10.7 12.1 7 11 1024.3 0 24.1 30.0 49.4 129.8 129.0 445.3
05/05 10:50 12.5 92 10.12 11.2 9 11 1024.4 0 22.9 29.3 47.4 124.6 122.2 421.3
05/05 10:40 12.6 89 9.85 10.8 11 15 1024.3 0 22.3 28.8 46.2 121.3 118.2 407.3
05/05 10:30 13 91 10.32 11.6 7 15 1024.3 0 23.3 29.5 48.0 126.1 124.2 428.5
05/05 10:20 12.2 92 9.93 10.9 11 15 1024.2 0 22.5 29.1 46.7 122.8 119.9 413.4
05/05 10:10 13 94 10.66 12.1 13 15 1024.1 0 24.0 30.1 49.4 130.0 129.1 445.5
05/05 10:00 12.5 95 10.45 11.7 7 13 1024.1 0 23.6 29.9 48.8 128.4 126.9 437.8
05/05 09:50 12.2 96 10.36 11.6 9 13 1024 0 23.4 29.8 48.6 127.8 126.1 434.9
05/05 09:40 11.4 95 9.75 10.6 9 9 1023.9 0 22.2 29.0 46.4 122.0 118.6 408.5
05/05 09:30 11.6 96 9.98 11 7 9 1023.7 0 22.7 29.3 47.3 124.3 121.5 419.0
05/05 09:20 11.7 97 10.15 11.2 7 9 1023.9 0 23.0 29.6 48.0 126.2 123.8 427.1
05/05 09:10 11.6 97 10.08 11.1 4 6 1023.8 0 22.9 29.5 47.7 125.5 123.0 424.0
05/05 09:00 11.5 97 10.02 11 6 9 1023.7 0 22.7 29.4 47.5 124.9 122.3 421.5
05/05 08:50 11.3 97 9.9 10.8 0 0 1023.8 13 22.5 29.3 47.1 123.9 120.9 416.6
05/05 08:40 11.1 97 9.77 10.6 4 6 1023.7 13 22.2 29.1 46.7 122.6 119.3 411.1
05/05 08:30 11 97 9.71 10.5 6 6 1023.5 13 22.1 29.0 46.5 122.1 118.6 408.5
05/05 08:20 10.9 97 9.65 10.4 2 6 1023.5 13 22.0 29.0 46.3 121.5 117.9 406.0
05/05 08:10 10.6 97 9.47 10.1 0 0 1023.4 12.8 21.6 28.7 45.7 119.9 115.7 398.5
05/05 08:00 10.5 97 9.41 10 0 0 1023.3 12.8 21.5 28.7 45.4 119.3 115.0 396.0
05/05 07:50 10.4 97 9.35 9.9 0 0 1023.3 12.8 21.4 28.6 45.2 118.8 114.3 393.5
05/05 07:40 10.4 97 9.35 9.9 0 0 1023.2 12.8 21.4 28.6 45.2 118.8 114.3 393.5
05/05 07:30 10.1 97 9.17 9.6 0 0 1023.1 12.8 21.0 28.4 44.6 117.1 112.1 386.0
05/05 07:20 9.9 97 9.06 9.4 0 0 1023 12.8 20.8 28.2 44.3 116.1 110.9 381.4
05/05 07:10 9.8 97 9 9.3 0 0 1022.8 12.8 20.6 28.2 44.0 115.6 110.1 378.9
05/05 07:00 9.6 97 8.89 9.1 0 0 1022.5 12.8 20.4 28.0 43.7 114.6 108.8 374.3
05/05 06:50 9.5 97 8.83 9 0 0 1022.5 12.8 20.3 27.9 43.5 114.0 108.1 371.8
05/05 06:40 9.3 97 8.72 8.8 0 0 1022.3 12.6 20.1 27.8 43.1 113.0 106.8 367.2
05/05 06:30 9.1 97 8.61 8.6 0 0 1022.1 12.6 19.8 27.7 42.7 112.0 105.5 362.6
05/05 06:20 9 97 8.55 8.5 0 0 1022 12.6 19.7 27.6 42.5 111.5 104.8 360.1
05/05 06:10 8.9 97 8.5 8.5 0 0 1021.9 12.6 19.6 27.5 42.3 111.0 104.2 358.0
05/05 06:00 8.9 97 8.5 8.5 0 0 1021.8 12.6 19.6 27.5 42.3 111.0 104.2 358.0
05/05 05:50 8.7 97 8.39 8.3 0 0 1021.9 12.6 19.4 27.4 42.0 110.0 102.9 353.5
05/05 05:40 8.6 97 8.34 8.2 0 0 1021.8 12.6 19.3 27.4 41.8 109.6 102.3 351.4
05/05 05:30 8.6 97 8.34 8.2 0 0 1021.7 12.6 19.3 27.3 41.8 109.6 102.3 351.4
05/05 05:20 8.3 97 8.18 7.9 0 0 1021.7 12.6 18.9 27.2 41.3 108.2 100.5 344.9
05/05 05:10 8.3 97 8.18 7.9 0 0 1021.7 12.6 18.9 27.2 41.3 108.2 100.5 344.9
05/05 05:00 8.2 97 8.13 7.8 0 0 1021.6 12.6 18.8 27.1 41.1 107.7 99.9 342.8
05/05 04:50 8 97 8.02 7.6 0 0 1021.7 12.6 18.6 27.0 40.7 106.8 98.6 338.3
05/05 04:40 8 97 8.02 7.6 0 0 1021.6 12.6 18.6 27.0 40.7 106.8 98.6 338.3
05/05 04:30 7.7 97 7.87 7.3 0 0 1021.4 12.6 18.3 26.8 40.2 105.4 96.8 332.1
05/05 04:20 7.5 97 7.77 7.1 0 0 1021.5 12.6 18.1 26.7 39.9 104.6 95.7 328.1
05/05 04:10 7.5 97 7.77 7.1 0 0 1021.4 12.6 18.1 26.7 39.9 104.6 95.7 328.0
05/05 04:00 7.4 97 7.72 7 0 6 1021.3 12.6 18.0 26.6 39.7 104.1 95.1 326.0
05/05 03:50 6.9 96 7.39 6.3 0 0 1021.3 12.6 17.3 26.2 38.6 101.0 91.1 311.9
05/05 03:40 6.8 96 7.35 6.2 0 0 1021.3 12.6 17.2 26.2 38.5 100.7 90.7 310.3
05/05 03:30 6.7 96 7.3 6.1 0 0 1021.2 12.6 17.1 26.1 38.3 100.3 90.1 308.2
05/05 03:20 7.1 96 7.49 6.5 0 0 1021.3 12.6 17.5 26.3 38.9 101.9 92.2 315.9
05/05 03:10 7.2 96 7.54 6.6 0 0 1021.3 12.6 17.6 26.4 39.1 102.3 92.8 318.0
05/05 03:00 7.2 96 7.54 6.6 0 0 1021.3 12.6 17.6 26.4 39.1 102.3 92.8 318.0
05/05 02:50 7.4 96 7.64 6.8 0 0 1021.4 12.6 17.8 26.5 39.4 103.2 94.0 322.1
05/05 02:40 7.5 96 7.69 6.9 0 0 1021.5 12.6 17.9 26.6 39.6 103.7 94.6 324.1
05/05 02:30 7.8 96 7.84 7.2 0 0 1021.4 12.6 18.2 26.7 40.1 105.0 96.3 330.2
05/05 02:20 7.9 96 7.89 7.3 0 0 1021.5 12.6 18.3 26.8 40.2 105.4 96.9 332.3
05/05 02:10 8.1 96 7.99 7.5 0 0 1021.6 12.6 18.5 26.9 40.6 106.3 98.0 336.3
05/05 02:00 8.4 96 8.15 7.8 0 0 1021.4 12.6 18.9 27.1 41.1 107.7 99.9 342.8
05/05 01:50 8.5 96 8.2 7.9 0 0 1021.5 12.6 19.0 27.1 41.2 108.1 100.5 344.9
05/05 01:40 8.4 96 8.15 7.8 0 0 1021.5 12.6 18.9 27.1 41.1 107.7 99.9 342.9
05/05 01:30 8.3 95 8.01 7.5 0 0 1021.5 12.6 18.6 26.9 40.5 106.2 98.1 336.4
05/05 01:20 8.7 96 8.31 8.1 0 0 1021.5 12.6 19.2 27.3 41.6 109.1 101.8 349.4
05/05 01:10 8.7 95 8.22 7.9 0 0 1021.5 12.6 19.0 27.1 41.2 108.1 100.5 345.0
05/05 01:00 8.9 95 8.32 8.1 0 0 1021.4 12.6 19.2 27.2 41.5 108.9 101.6 349.0
05/05 00:50 9.2 95 8.49 8.4 0 0 1021.5 12.6 19.6 27.4 42.1 110.4 103.6 356.0
05/05 00:40 9.3 95 8.54 8.5 0 2 1021.4 12.6 19.7 27.5 42.3 110.9 104.2 358.0
05/05 00:30 9.8 95 8.82 9 2 7 1021.3 12.6 20.3 27.8 43.2 113.3 107.4 369.5
05/05 00:20 10.1 95 8.99 9.3 0 0 1021.3 12.6 20.6 28.0 43.8 114.8 109.4 376.4
05/05 00:10 10.3 95 9.1 9.5 0 0 1021.3 12.6 20.8 28.1 44.1 115.8 110.7 380.9
05/05 00:00 10.2 95 9.04 9.4 0 0 1021.3 12.6 20.7 28.0 43.9 115.3 110.0 378.4
04/05 23:50 10.2 95 9.04 9.4 0 0 1021.3 12.6 20.7 28.0 43.9 115.3 110.0 378.4
04/05 23:40 10.1 95 8.99 9.3 0 0 1021.3 12.6 20.6 28.0 43.8 114.8 109.4 376.4
04/05 23:30 10.1 95 8.99 9.3 0 0 1021.1 12.6 20.6 28.0 43.7 114.8 109.4 376.4
04/05 23:20 10.1 94 8.89 9.2 0 0 1021.2 12.6 20.4 27.8 43.3 113.7 108.0 371.5
04/05 23:10 10 94 8.83 9.1 0 0 1021.2 12.6 20.3 27.7 43.1 113.1 107.3 369.0
04/05 23:00 10.1 93 8.8 9 0 0 1021 12.6 20.2 27.6 42.9 112.6 106.7 367.0
04/05 22:50 10.4 93 8.97 9.3 0 0 1021.1 12.6 20.5 27.8 43.5 114.2 108.7 373.9

Last Refresh: 05-May-2026 15:32:10

Bureau of Meteorology